Regional Weather Roundup
Issued by NWS Grand Forks, ND

Home | Current Version | Previous Version | Graphics & Text | Print | Product List | Glossary On
Versions: 1 2 3 4 5 6 7 8 9 10 11 12 13 14 15 16 17 18 19 20 21 22 23 24 25 26 27 28 29 30 31 32 33 34 35 36 37 38 39 40 41 42 43 44 45 46 47 48 49 50
000
ASUS43 KFGF 170310
RWRFGF
PRAIRIE TO PINES  WEATHER ROUNDUP
NATIONAL WEATHER SERVICE EASTERN NORTH DAKOTA/GRAND FORKS ND
1000 PM CDT TUE SEP 16 2014

 **SATELLITE DATA USED TO AUGMENT SKY COVER AT AUTOMATED STATIONS**
 *****  WEATHER ACROSS EASTERN NORTH DAKOTA  *****

CITY           SKY/WX    TMP DP  RH WIND       PRES   REMARKS
GRAND FORKS    CLEAR     52  44  74 S7        29.91F
GRAND FRKS AFB CLEAR     53  44  69 S8        29.92S
GRAND FRKS NWS   N/A     55 N/A N/A S3          N/A
DEVILS LAKE    CLEAR     54  43  66 CALM      29.91R
FARGO          CLEAR     57  46  66 SE7       29.93S
WAHPETON ARPT  CLEAR     54  43  66 E6        29.94S
$$

 ***** WEATHER ACROSS CENTRAL AND WESTERN NORTH DAKOTA  *****

CITY           SKY/WX    TMP DP  RH WIND       PRES   REMARKS
BISMARCK       CLEAR     54  47  77 NE6       29.92S
MINOT          CLEAR     56  44  64 CALM      29.90S
JAMESTOWN      CLEAR     50  45  83 NE6       29.92F
MINOT AFB      CLEAR     48  44  85 S5        29.90S
GARRISON         N/A     51  43  74 CALM      29.91S
WILLISTON      CLEAR     49  40  71 N3        29.91S HAZE
DICKINSON      PTCLDY    54  44  69 E6        29.93R
HETTINGER      CLOUDY    56  47  71 NE6       29.94S
$$

 *****  OTHER AIRPORT OBSERVATIONS IN OUR AREA  *****

CITY           SKY/WX    TMP DP  RH WIND       PRES   REMARKS
WALHALLA         N/A     50  50 100 SW3       29.90S
GRAFTON AIRPOR FAIR      54  41  62 SW7       29.90S
VALLEY CITY AR MOCLDY    55  45  67 E7        29.92F
CANDO          FAIR      50  43  76 S5        29.92S
CAVALIER APRT  FAIR      50  45  81 CALM      29.89F
GWINNER        CLEAR     55  54  94 SE5       29.93S
SHEYENNE NWR     N/A     54  49  82 SE2       29.95S
ROLLA          FAIR      46  41  81 W7        29.92F
 ***** THE ABOVE OBSERVATIONS ARE NON NWS ARE NOT QUALITY
       CONTROLLED AND MAY MIS-REPORT RAIN FOR SNOW...
$$

  *****  WEATHER ACROSS NORTHERN MINNESOTA  *****

CITY           SKY/WX    TMP DP  RH WIND       PRES   REMARKS
FLAG ISLAND    CLOUDY    57  52  82 S8        29.88F
WARROAD        MOCLDY    55  52  88 S5        29.90F
ROSEAU         MOCLDY    52  46  82 S7        29.90F
HALLOCK        CLEAR     52  45  76 SW3       29.89S
THF RVR FALLS  CLEAR     54  43  66 S8        29.93S
BAUDETTE       CLOUDY    53  49  86 CALM      29.90F
WASKISH        CLOUDY    57  46  67 CALM      29.93F
CROOKSTON      CLEAR     48  45  87 S7        29.94S
STEPHEN NDAWN    N/A     55  45  67 S7          N/A
GREENBUSH NDAW   N/A     50  46  87 S5          N/A
$$
  *****  WEATHER ACROSS CENTRAL AND WEST MINNESOTA  *****

CITY           SKY/WX    TMP DP  RH WIND       PRES   REMARKS
FOSSTON        CLEAR     46  41  81 S5        29.96F
BEMIDJI        CLEAR     53  42  66 SW3       29.96S
PARK RAPIDS    CLEAR     52  42  69 SE3       29.98S
ELBOW LAKE     FAIR      57  47  70 SE7       29.96S
WADENA         PTCLDY    48  43  81 CALM      29.98S
DETROIT LAKES  CLEAR     55  46  71 SE5       29.98S
MOORHEAD       CLEAR     55  48  76 SE3       29.94F
FERGUS FALLS   PTCLDY    59  45  58 SE8       29.96S
MORRIS MN      CLEAR     54  48  82 SE6       29.95S
STAPLES        CLEAR     46  43  87 SE3       29.99S
$$
  *****  WEATHER ELSEWHERE ACROSS MINNESOTA  *****

CITY           SKY/WX    TMP DP  RH WIND       PRES   REMARKS
DULUTH         PTCLDY    56  42  59 SW9       29.99S
INTRNTL FALLS  LGT RAIN  51  49  92 CALM      29.93S
ELY            CLOUDY    50  46  87 CALM      29.96S
CLOQUET        CLEAR     54  43  66 SW7       29.99S
WHEATON        CLEAR     50  46  87 SE8       29.96S
BRAINERD       CLEAR     46  44  93 CALM      30.00F
HIBBING        PTCLDY    49  43  80 CALM      29.97S
ALEXANDRIA     PTCLDY    55  46  71 SE6       29.99S
SAINT CLOUD    CLOUDY    58  47  66 E5        30.00S
MINNEAPOLIS    PTCLDY    57  45  64 SE3       30.01F
$$

  *****  WEATHER ACROSS SOUTH DAKOTA  *****

CITY           SKY/WX    TMP DP  RH WIND       PRES   REMARKS
SIOUX FALLS    CLOUDY    62  49  62 S10       29.97S
BROOKINGS      NOT AVBL
WATERTOWN      CLOUDY    60  50  69 SE10      29.95S
HURON          CLEAR     62  54  74 S9        29.91S
SISSETON         N/A     60  54  80 S5        29.93R
ABERDEEN       CLEAR     53  51  93 E5        29.91S
MITCHELL       CLEAR     60  54  80 SE9       29.93S
PIERRE         MOCLDY    59  50  72 NE3       29.89S
MOBRIDGE       CLEAR     62  53  72 E12       29.88S
RAPID CITY     CLEAR     56  47  71 NW5       29.96R
$$

  *****  SOME WEATHER IN NEARBY STATES *****

CITY           SKY/WX    TMP DP  RH WIND       PRES   REMARKS
GLASGOW MT     CLEAR     60  40  47 E8        29.88S
GREAT FALLS MT CLOUDY    65  45  48 SW7       29.91R
CHEYENNE WY    PTCLDY    64  36  35 CALM      30.17R
SCOTTSBLUFF NE CLEAR     62  49  62 E10       29.99R
OMAHA NE       CLOUDY    64  50  60 SE10      30.02F
DES MOINES IA  PTCLDY    59  49  69 S7        30.07R
DAVENPORT IA   CLEAR     47  44  90 CALM      30.09S FOG
CHICAGO IL     CLEAR     56  48  74 CALM      30.10S
EAU CLAIRE WI  CLEAR     46  43  89 CALM      30.04S
LA CROSSE WI   CLEAR     52  47  83 SE6       30.06S
$$

  *****  SOME NATIONAL WEATHER *****

CITY           SKY/WX    TMP DP  RH WIND       PRES   REMARKS
LA GUARDIA NY  MOCLDY    66  51  58 NW10      30.01R
RALEIGH NC     CLOUDY    72  65  78 CALM      29.98F
ATLANTA GA     PTCLDY    74  68  81 NW5       30.00S
NEW ORLEANS LA CLOUDY    77  74  90 NW5       30.03R
OKLAHOMA CITY  MOCLDY    79  70  74 E7        30.02R
ALBUQUERQUE NM CLOUDY    64  55  72 SE9       30.24R
SALT LAKE CITY CLEAR     76  44  32 S6        29.96R
LOS ANGELES CA PTCLDY    79  63  57 W8        29.71S
BOISE ID       CLEAR     80  43  26 CALM      29.81S
SEATTLE WA     CLOUDY    66  54  65 W5        29.89R
$$

*** WEATHER ACROSS MANITOBA...SASKATCHEWAN AND ONTARIO ***
                ***ONTARIO***

CITY           SKY/WX    TMP DP  RH WIND       PRES   REMARKS
GERALDTON      MOCLDY    36  28  75 NE5       30.03S
THUNDER BAY    CLOUDY    46  41  81 E9        30.02S
SIOUX LOOKOUT  LGT RAIN  43  36  75 E6        29.95F
TORONTO        PTCLDY    52  43  71 W6        30.05F
BIG TROUT LK   CLOUDY    37  21  52 NW8       30.04F
PICKLE LAKE    NOT AVBL
DRYDEN         CLOUDY    45  39  81 E7        29.94F
KENORA         CLOUDY    52  46  82 SE6       29.89F
$$
                *** MANITOBA***

CITY           SKY/WX    TMP DP  RH WIND       PRES   REMARKS
BRANDON        CLEAR     48  46  93 E2        29.90S
DAUPHIN        LGT RAIN  50  46  87 E8        29.92S
ISLAND LAKE    PTCLDY    37  27  65 N6        30.09R
PILOT MOUND      N/A     52  45  76 E3          N/A
THE PAS        CLOUDY    36  36 100 E6        30.08R
THOMPSON       MOCLDY    28  25  86 N2        30.11S
WINNIPEG       NOT AVBL
LYNN LAKE      CLEAR     30  21  69 NE3       30.12
CHURCHILL      CLOUDY    34  27  75 NW17      30.06S WCI  23
GILLAM         CLOUDY    36  21  55 NW7       30.10S
$$
                ***SASKATCHEWAN***

CITY           SKY/WX    TMP DP  RH WIND       PRES   REMARKS
ESTEVAN        PTCLDY    55  43  62 S6        29.90S
KINDERSLEY     CLEAR     59  45  58 E8        29.87S
LLOYDMINSTER   PTCLDY    55  43  62 SE7       29.86S
PRINCE ALBERT  MOCLDY    43  39  87 E13G18    29.97R
REGINA         PTCLDY    55  46  71 S5        29.88S
YORKTON        PTCLDY    52  48  87 N10       29.88R
N. BATTLEFORD  CLEAR     57  43  58 E10       29.89R
LA RONGE       CLOUDY    37  34  87 E7        30.07R
SASKATOON      PTCLDY    55  48  76 E9        29.89R
SWIFT CURRENT  CLEAR     63  41  45 NE3       29.89R
$$
NOTE: THESE ARE AUTOMATED STATIONS WITH LIMITED QUALITY CONTROL
      "FAIR" INDICATES FEW OR NO CLOUDS BELOW 12,000 FEET WITH NO
      SIGNIFICANT WEATHER AND/OR OBSTRUCTIONS TO VISIBILITY.
      SKY/WX - SKY CONDITION AND SIGNIFICANT WEATHER.
      TMP - AIR TEMPERATURE.    DP   - DEWPOINT TEMPERATURE.
      RH  - RELATIVE HUMIDITY.  PRES - PRESSURE.
      HX  - HEAT INDEX.         WCI  - WIND CHILL INDEX.
$


USA.gov is the U.S. government's official web portal to all federal, state and local government web resources and services.